Skip Page Navigation
NASA JPL Caltech
NASA Logo - Jet Propulsion Laboratory + View the NASA Portal
+ Center for Near-Earth Object Studies
JPL Home Earth Solar System Stars & Galaxies Technology
JPL Solar System Dynamics
BODIES ORBITS EPHEMERIDES TOOLS PHYSICAL DATA DISCOVERY FAQ SITE MAP
IMPORTANT: The SSD Announcement email list is now available. Major changes are coming in the near future, including possible hostname and/or URL changes. To be notified of such changes, subscribe to this email list.

Please visit this page for more details.


JPL Small-Body Database Browser
Search: [ help ]  
295072 (2008 ER126)
Classification: Main-belt Asteroid          SPK-ID: 2295072
Ephemeris | Orbit Diagram | Orbital Elements | Mission Design | Physical Parameters | Discovery Circumstances ]

[ show orbit diagram ]
Orbital Elements at Epoch 2458600.5 (2019-Apr-27.0) TDB
Reference: JPL 10 (heliocentric ecliptic J2000)
 Element Value Uncertainty (1-sigma)   Units 
e .1002004777856821 6.6379e-08  
a 2.948903512816473 3.7811e-08 au
q 2.653421971888386 1.9236e-07 au
i 9.457316908905316 9.029e-06 deg
node 336.5947875111995 3.4951e-05 deg
peri 67.45994019738728 6.1384e-05 deg
M 196.5770426226062 5.4987e-05 deg
tp 2459440.152984006008
(2021-Aug-13.65298401)
0.00028963 TDB
period 1849.648783090597
5.06
3.5575e-05
9.74e-08
d
yr
n .1946315448052102 3.7434e-09 deg/d
Q 3.24438505374456 4.16e-08 au
  Orbit Determination Parameters
   # obs. used (total)      124  
   data-arc span      8656 days (23.70 yr)  
   first obs. used      1995-10-19  
   last obs. used      2019-07-01  
   planetary ephem.      DE431  
   SB-pert. ephem.      SB431-N16  
   condition code      0  
   norm. resid. RMS      .52895  
   source      ORB  
   producer      Otto Matic  
   solution date      2019-Sep-24 05:42:34  

Additional Information
 Earth MOID = 1.6783 au 
 Jupiter MOID = 2.15271 au 
 T_jup = 3.242 
[ show covariance matrix ]

Ephemeris | Orbit Diagram | Orbital Elements | Mission Design | Physical Parameters | Discovery Circumstances ]

Physical Parameter Table
Parameter Symbol Value Units Sigma Reference Notes
absolute magnitude H 16.4   n/a MPO437319  

295072 (2008 ER126)          Discovered 2008-Mar-10 by Mt. Lemmon Survey at Mount Lemmon
Reference: 20110912/Numbers.arcLast Updated: 2011-09-14

Alternate Designations
 2008 ER126 = 2005 QV119 
Ephemeris | Orbit Diagram | Orbital Elements | Mission Design | Physical Parameters | Discovery Circumstances ]
ABOUT SSD CREDITS/AWARDS PRIVACY/COPYRIGHT GLOSSARY LINKS
FirstGov
(server date/time)  
NASA Home Page
Site Manager:   Ryan S. Park
Webmaster  Alan B. Chamberlin